Location: Unspecified
(0.0000°N, 0.0000°E)
Time: 19:01:11
(UTC+00:00)

S-56A Canister/Altair - All Passes

Search period start: 04 July 2015 00:00
Search period end: 14 July 2015 00:00
Orbit: 636 x 2499 km, 38.9° (Epoch: 30 June)

Date Brightness Start Highest point End Pass type
(mag) Time Alt. Az. Time Alt. Az. Time Alt. Az.
04 Jul - 07:40:19 10° S 07:43:16 17° SE 07:46:17 10° E daylight
04 Jul - 09:42:51 10° WSW 09:47:00 37° NW 09:51:43 10° NNE daylight
04 Jul - 18:11:45 10° NNW 18:21:50 26° NE 18:33:44 10° E visible
04 Jul - 20:14:54 10° NW 20:29:32 76° NE 20:43:57 10° SE visible
04 Jul - 22:22:49 10° WNW 22:36:40 41° SW 22:48:16 10° SSE visible
05 Jul - 07:08:45 10° S 07:11:00 13° SE 07:13:19 10° ESE daylight
05 Jul - 09:10:33 10° WSW 09:14:52 48° NW 09:19:32 10° NE daylight
05 Jul - 17:39:44 10° N 17:48:34 22° NE 17:59:25 10° E daylight
05 Jul - 19:42:09 10° NW 19:56:15 68° NE 20:10:56 10° ESE visible
05 Jul - 21:49:11 10° WNW 22:03:28 46° SW 22:15:57 10° SSE visible
06 Jul - 00:06:04 10° SW 00:11:27 12° SSW 00:15:18 10° SSW visible
06 Jul - 06:37:33 10° SSE 06:38:39 11° SSE 06:39:56 10° SE daylight
06 Jul - 08:38:16 10° WSW 08:42:45 64° NW 08:47:21 10° NE daylight
06 Jul - 17:07:59 10° N 17:15:21 18° NE 17:24:44 10° ENE daylight
06 Jul - 19:09:32 10° NW 19:22:59 61° NE 19:37:45 10° ESE visible
06 Jul - 21:15:45 10° WNW 21:30:13 53° SW 21:43:29 10° SSE visible
06 Jul - 23:30:15 10° WSW 23:38:14 15° SSW 23:44:25 10° S visible
07 Jul - 08:05:59 10° SW 08:10:41 86° NW 08:15:11 10° NE daylight
07 Jul - 16:36:36 10° N 16:42:11 15° NE 16:49:35 10° ENE daylight
07 Jul - 18:37:02 10° NNW 18:49:45 54° NE 19:04:25 10° ESE visible
07 Jul - 20:42:30 10° WNW 20:56:56 60° SW 21:10:55 10° SE visible
07 Jul - 22:55:14 10° WSW 23:04:58 19° SW 23:12:50 10° S visible
08 Jul - 07:33:42 10° SW 07:38:37 71° SE 07:43:01 10° NE daylight
08 Jul - 16:06:08 10° NNE 16:09:03 11° NE 16:13:25 10° NE daylight
08 Jul - 18:04:41 10° NNW 18:16:34 47° NE 18:30:54 10° ESE visible
08 Jul - 20:09:26 10° WNW 20:23:39 67° SW 20:38:11 10° SE visible
08 Jul - 22:20:40 10° W 22:31:40 22° SW 22:40:56 10° S visible
09 Jul - 07:01:24 10° SW 07:06:30 53° SE 07:10:50 10° ENE daylight
09 Jul - 09:08:30 10° WNW 09:10:16 12° NW 09:11:50 10° NNW daylight
09 Jul - 17:32:28 10° NNW 17:43:26 41° NE 17:57:11 10° ESE daylight
09 Jul - 19:36:31 10° NW 19:50:21 74° SW 20:05:21 10° SE visible
09 Jul - 21:46:27 10° W 21:58:20 26° SW 22:08:49 10° SSE visible
10 Jul - 06:29:04 10° SSW 06:34:20 42° SE 06:38:38 10° ENE daylight
10 Jul - 08:35:12 10° WNW 08:38:00 15° NW 08:40:37 10° N daylight
10 Jul - 17:00:23 10° NNW 17:10:23 35° NE 17:23:18 10° ESE daylight
10 Jul - 19:03:45 10° NW 19:17:06 82° SW 19:32:21 10° SE visible
10 Jul - 21:12:32 10° W 21:24:58 30° SW 21:36:29 10° SSE visible
11 Jul - 05:56:43 10° SSW 06:02:06 34° SE 06:06:23 10° ENE daylight
11 Jul - 08:02:11 10° W 08:05:49 21° NW 08:09:06 10° N daylight
11 Jul - 16:28:28 10° NNW 16:37:23 29° NE 16:49:11 10° E daylight
11 Jul - 18:31:07 10° NW 18:43:53 89° NE 18:59:16 10° SE visible
11 Jul - 20:38:53 10° W 20:51:36 34° SW 21:04:01 10° SSE visible
12 Jul - 05:24:18 10° SSW 05:29:47 28° SE 05:34:06 10° E visible
12 Jul - 07:29:18 10° WSW 07:33:40 28° NW 07:37:28 10° NNE daylight
12 Jul - 15:56:43 10° N 16:04:28 24° NE 16:14:51 10° E daylight
12 Jul - 17:58:38 10° NW 18:10:43 80° NE 18:26:01 10° SE daylight
12 Jul - 20:05:28 10° W 20:18:14 38° SW 20:31:24 10° SSE visible
12 Jul - 22:23:06 10° SW 22:27:52 11° SSW 22:31:19 10° S visible
13 Jul - 04:51:52 10° SSW 04:57:24 25° SSE 05:01:46 10° E visible
13 Jul - 06:56:28 10° WSW 07:01:34 37° NW 07:05:44 10° NNE daylight
13 Jul - 15:25:14 10° N 15:31:36 19° NE 15:40:13 10° E daylight
13 Jul - 17:26:16 10° NW 17:37:39 72° NE 17:52:39 10° SE daylight
13 Jul - 19:32:15 10° WNW 19:44:53 43° SW 19:58:39 10° SSE visible
13 Jul - 21:47:15 10° SW 21:54:21 14° SSW 22:00:10 10° S visible
